Jackson, MI

8:19 AM EDT on September 21, 2019 (GMT -0400)
Jackson County-Reynolds

Weather History for KJXN - May, 2019

Change the Weather History Date:

Thursday, May 30, 2019

  Actual Average Record
Temperature  
Mean Temperature 64 °F 62 °F  
Max Temperature 73 °F 74 °F 91 °F (1953)
Min Temperature 54 °F 51 °F 34 °F (1966)
Degree Days  
Heating Degree Days 1 5  
Month to date heating degree days 239 253  
Since 1 July heating degree days 6636 6599  
Cooling Degree Days 0 2  
Month to date cooling degree days 10 30  
Year to date cooling degree days 10 36  
Growing Degree Days 14 (Base 50)    
Moisture  
Dew Point 59 °F    
Average Humidity 84    
Maximum Humidity 100    
Minimum Humidity 68    
Precipitation  
Precipitation 0.27 in 0.11 in 1.75 in (1989)
Month to date precipitation 3.77 3.20  
Year to date precipitation 12.01 10.49  
Sea Level Pressure  
Sea Level Pressure 29.76 in    
Wind  
Wind Speed 3 mph (West)    
Max Wind Speed 18 mph    
Max Gust Speed 27 mph    
Visibility 8 miles    
Events Rain , Thunderstorm    
T = Trace of Precipitation, MM = Missing Value Source: NWS Daily Summary

Daily Weather History Graph

Daily Weather History Graph

Search for Another Location

Airport or City:

Astronomy

May. 30, 2019 Rise Set
Actual Time 6:05 AM EDT 9:06 PM EDT
Civil Twilight 5:31 AM EDT 9:39 PM EDT
Nautical Twilight 4:48 AM EDT 10:22 PM EDT
Astronomical Twilight 3:58 AM EDT 11:13 PM EDT
Moon 4:16 AM EDT (5/30) 5:07 PM EDT (5/30)
Length of Visible Light 16h 08m
Length of Day
15h 01m
Waning Crescent, 15% of the Moon is Illuminated
May 30
Waning Crescent
Jun 3
New
Jun 10
First Quarter
Jun 17
Full
Jun 25
Last Quarter

Hourly Weather History & Observations

Time (EDT) Temp. Dew Point Humidity Pressure Visibility Wind Dir Wind Speed Gust Speed Precip Events Conditions
12:56 AM 57.9 °F 57.9 °F 100% 29.79 in 10.0 mi SW 3.5 mph - N/A   Clear
1:56 AM 57.9 °F 57.9 °F 100% 29.77 in 10.0 mi Calm Calm - N/A   Clear
2:56 AM 59.0 °F 57.9 °F 96% 29.75 in 10.0 mi Calm Calm - N/A   Clear
3:56 AM 60.1 °F 57.9 °F 93% 29.75 in 10.0 mi NW 3.5 mph - N/A   Mostly Cloudy
4:56 AM 59.0 °F 57.9 °F 96% 29.74 in 10.0 mi NNE 4.6 mph - N/A   Mostly Cloudy
5:56 AM 59.0 °F 57.9 °F 96% 29.73 in 10.0 mi Calm Calm - N/A   Overcast
6:56 AM 59.0 °F 57.9 °F 96% 29.73 in 10.0 mi Calm Calm - N/A   Partly Cloudy
7:23 AM 61.0 °F 57.9 °F 90% 29.73 in 10.0 mi Calm Calm - N/A Thunderstorm Scattered Clouds
7:47 AM 60.1 °F 57.9 °F 93% 29.76 in 1.2 mi South 3.5 mph - 0.08 in Rain Light Rain
7:50 AM 60.8 °F 57.2 °F 88% 29.76 in 2.5 mi SW 5.8 mph - 0.08 in Rain , Thunderstorm Light Rain
7:56 AM 60.1 °F 57.9 °F 93% 29.75 in 10.0 mi WSW 3.5 mph - 0.08 in Rain , Thunderstorm Light Rain
8:20 AM 60.1 °F 57.9 °F 93% 29.77 in 10.0 mi Calm Calm - 0.01 in   Overcast
8:56 AM 60.1 °F 59.0 °F 96% 29.76 in 10.0 mi Calm Calm - 0.01 in   Overcast
9:56 AM 62.1 °F 59.0 °F 90% 29.75 in 10.0 mi West 4.6 mph - N/A   Mostly Cloudy
10:04 AM 63.0 °F 59.0 °F 87% 29.76 in 10.0 mi WNW 5.8 mph - N/A   Overcast
10:56 AM 64.0 °F 59.0 °F 84% 29.75 in 10.0 mi Variable 3.5 mph - N/A   Overcast
11:56 AM 66.9 °F 59.0 °F 76% 29.72 in 10.0 mi North 3.5 mph - N/A   Overcast
12:48 PM 63.0 °F 59.0 °F 87% 29.76 in 2.5 mi NW 4.6 mph - 0.04 in Rain Rain
12:56 PM 61.0 °F 57.9 °F 90% 29.77 in 2.5 mi WNW 6.9 mph - 0.06 in Rain Rain
1:07 PM 61.0 °F 55.9 °F 83% 29.76 in 1.8 mi NW 5.8 mph - 0.04 in Rain Light Rain
1:18 PM 61.0 °F 59.0 °F 93% 29.76 in 2.0 mi Calm Calm - 0.09 in Rain Light Rain
1:27 PM 61.0 °F 59.0 °F 93% 29.77 in 9.0 mi WNW 8.1 mph - 0.09 in Rain Light Rain
1:56 PM 64.0 °F 60.1 °F 87% 29.75 in 10.0 mi WNW 5.8 mph - 0.09 in   Overcast
2:28 PM 66.0 °F 61.0 °F 84% 29.76 in 10.0 mi WSW 6.9 mph - N/A   Overcast
2:56 PM 69.1 °F 62.1 °F 78% 29.75 in 10.0 mi Variable 4.6 mph - N/A   Mostly Cloudy
3:56 PM 72.0 °F 60.1 °F 66% 29.75 in 10.0 mi Variable 6.9 mph - N/A   Scattered Clouds
4:56 PM 66.9 °F 60.1 °F 79% 29.76 in 7.0 mi NW 10.4 mph 19.6 mph N/A   Overcast
5:56 PM 64.0 °F 61.0 °F 90% 29.77 in 10.0 mi West 4.6 mph - 0.03 in   Overcast
6:56 PM 64.9 °F 62.1 °F 90% 29.76 in 10.0 mi WSW 3.5 mph - N/A   Partly Cloudy
7:56 PM 64.9 °F 62.1 °F 90% 29.78 in 10.0 mi West 4.6 mph - N/A   Clear
8:56 PM 64.0 °F 62.1 °F 93% 29.78 in 10.0 mi Calm Calm - N/A   Clear
9:56 PM 61.0 °F 61.0 °F 100% 29.79 in 10.0 mi Calm Calm - N/A   Clear
10:56 PM 60.1 °F 59.0 °F 96% 29.82 in 10.0 mi Calm Calm - N/A   Clear
11:15 PM 57.9 °F 57.9 °F 100% 29.83 in 1.8 mi SW 3.5 mph - N/A   Clear
11:24 PM 55.9 °F 55.9 °F 100% 29.83 in 3.0 mi SW 4.6 mph - N/A   Clear
11:56 PM 57.0 °F 57.0 °F 100% 29.82 in 7.0 mi Calm Calm - N/A   Clear